Wind_Speed
66 70 72 78 78 65 63 67 73 83 90 85 86 86 85 83 73 69 68 59 58 59 59 58 62 61 61 57 53 54 57 57 57 53 55 55 58 58 61 59 58 60 58
70 75 75 79 80 73 70 73 74 81 86 86 79 79 82 85 80 67 61 60 61 60 59 59 60 62 64 67 63 58 60 62 59 60 56 56 60 61 64 64 62 66 72
72 76 75 80 79 76 73 74 79 85 88 91 87 87 86 84 84 73 69 66 61 60 59 61 59 58 67 67 65 64 61 70 65 61 58 59 65 66 69 69 73 76 78
75 76 76 82 80 78 77 78 81 84 89 93 91 86 74 76 85 77 78 74 68 66 65 63 65 66 65 63 63 62 61 67 64 63 61 69 69 68 71 76 79 82 83
76 74 79 80 78 78 79 81 87 93 93 90 92 90 86 92 85 82 73 75 72 67 72 70 72 68 67 66 72 72 65 65 62 64 71 72 73 76 81 79 86 90 88
73 78 78 79 78 78 81 82 90 87 88 83 89 91 95 91 84 80 79 78 76 66 68 68 69 72 71 74 73 76 75 79 76 71 72 75 79 80 82 84 85 88 89
60 69 71 73 72 77 84 88 93 89 97 94 83 84 88 90 80 81 84 85 81 77 77 78 79 79 78 76 78 80 81 82 78 78 79 83 84 86 86 91 93 93 97
50 56 61 66 76 78 86 87 90 88 96 98 90 88 81 82 82 86 87 93 94 87 88 85 81 86 82 80 80 85 85 83 86 86 88 90 95 99 96 95 94 99 97
46 49 55 66 72 85 87 87 87 89 96 96 101 103 98 91 90 87 85 93 93 93 89 96 91 93 97 93 86 87 88 92 89 91 90 94 92 91 94 97 98 95 98
52 57 61 68 78 80 85 82 89 102 111 101 103 103 102 102 96 96 98 98 99 96 96 96 98 96 100 92 90 85 90 86 86 88 89 89 90 94 96 96 98 96 95
59 68 75 70 67 72 85 71 90 102 114 113 102 112 100 89 90 89 95 106 104 102 101 93 101 95 91 89 89 88 85 91 92 93 93 94 96 96 94 95 95 95 97
65 73 82 77 58 79 85 71 76 83 99 103 102 90 93 101 93 91 90 93 92 93 98 100 97 98 97 97 96 97 96 90 90 95 96 94 97 96 100 100 98 100 102
72 79 74 85 74 77 82 77 78 79 87 93 93 95 100 95 100 98 91 96 98 96 100 97 97 94 100 105 103 103 96 98 102 102 102 103 103 106 106 103 107 109 109
78 81 74 79 85 81 79 83 83 82 93 93 95 95 93 100 106 102 100 99 98 98 97 98 99 100 100 99 99 99 99 99 104 103 106 105 106 106 107 109 107 107 110
78 84 85 76 80 85 82 90 92 89 84 104 107 110 107 107 107 103 104 105 106 105 101 105 105 104 106 104 105 104 109 104 104 106 106 108 106 110 109 113 112 112 109
77 85 91 86 86 85 88 94 95 99 100 100 107 116 118 111 111 111 112 110 113 110 109 109 111 109 113 112 115 115 113 111 108 109 107 105 109 114 117 114 114 117 113
48 78 86 80 82 86 84 92 94 98 102 105 112 114 117 121 123 122 122 124 119 118 120 121 123 118 118 123 120 122 120 116 115 117 116 116 116 116 119 120 118 118 119
58 76 90 92 88 85 87 88 98 100 102 106 111 116 113 119 124 129 132 131 131 132 134 129 127 124 126 126 128 129 127 125 122 123 124 123 123 122 124 124 123 124 131
17 47 77 93 97 95 92 96 102 99 109 111 117 116 121 124 128 131 133 135 134 137 137 141 142 140 138 140 146 142 134 134 129 131 133 131 129 129 126 130 129 135 133
20 12 16 35 73 104 96 102 103 110 115 116 123 129 132 135 142 141 139 140 142 147 151 155 154 151 150 150 146 144 142 140 140 143 139 137 136 135 137 137 138 141 143
32 36 38 22 38 40 41 48 72 102 109 111 126 134 140 145 150 150 150 152 157 158 157 155 158 156 153 156 156 155 154 154 153 148 147 146 143 144 141 143 143 141 141
45 50 52 59 61 65 60 63 61 68 82 94 109 128 145 152 159 156 159 172 169 168 167 164 166 167 166 164 161 159 157 158 157 154 155 155 153 153 151 149 151 154 155
53 57 60 68 71 78 77 75 74 70 72 92 101 112 119 127 133 137 137 162 175 170 170 171 166 180 173 167 168 165 167 170 164 162 159 157 160 157 161 157 159 162 160
61 70 73 80 82 85 84 79 75 76 81 88 96 102 112 123 134 136 135 135 137 140 139 134 135 164 169 169 172 179 174 180 170 171 170 172 172 166 169 176 176 175 170
72 79 81 89 91 95 94 89 87 84 83 82 82 81 80 82 86 94 105 116 126 134 138 137 134 131 133 144 147 149 154 164 168 158 152 153 170 178 180 173 156 142 136
80 85 91 96 99 99 96 95 91 85 77 71 69 67 65 65 67 71 76 81 87 92 100 109 120 128 131 133 134 133 133 137 136 135 136 133 134 134 135 133 132 126 120
Wind_Direction
234 234 233 232 235 232 228 225 223 224 219 215 220 224 227 229 232 231 241 242 242 242 240 245 247 251 255 252 250 251 252 253 262 273 280 281 277 279 275 270 272 267 269
231 231 229 230 232 230 229 227 222 221 217 215 220 223 227 229 228 233 237 234 239 238 239 246 249 253 251 249 253 255 256 255 259 274 280 272 276 272 269 270 273 273 279
231 229 224 227 228 228 227 227 221 218 214 213 212 218 222 227 233 239 236 232 235 239 245 247 247 243 248 250 256 257 257 256 267 273 274 273 272 272 273 275 274 276 279
227 224 222 225 227 227 225 223 220 217 217 214 211 217 225 230 235 246 238 234 232 231 237 238 242 246 251 256 258 253 256 259 263 272 271 267 269 272 274 276 274 279 278
225 222 223 224 225 224 224 221 217 214 215 215 218 218 225 233 240 240 229 230 231 236 236 237 243 250 254 252 249 253 254 254 261 264 265 267 272 276 275 276 277 282 287
222 222 221 222 221 221 219 218 217 215 211 215 219 222 227 236 234 234 229 226 226 232 237 242 246 246 247 247 250 256 254 258 261 266 263 266 273 278 276 282 282 285 287
220 220 221 222 212 212 214 214 215 212 205 215 220 223 227 227 228 229 229 228 232 235 237 237 243 247 247 248 251 255 260 260 260 261 265 267 272 275 275 280 284 283 289
211 213 211 206 206 206 210 211 214 211 213 213 212 218 223 226 229 233 238 234 236 237 233 236 243 242 246 250 255 258 263 266 267 268 269 271 274 277 277 278 281 284 288
191 194 201 208 204 196 204 207 209 209 206 210 217 222 226 229 230 232 238 240 242 241 240 241 248 253 252 255 259 261 264 268 269 268 271 273 272 273 275 277 282 285 290
184 185 191 188 196 198 199 210 210 210 206 211 218 221 226 231 238 242 243 245 244 242 245 246 250 254 258 258 260 263 264 263 264 268 269 270 270 274 277 279 282 284 284
181 178 178 183 189 198 202 209 213 212 214 217 223 228 228 231 238 241 246 248 247 249 249 251 254 258 259 257 258 259 261 261 265 263 264 267 269 272 277 276 275 277 279
181 183 186 183 190 197 202 204 207 214 216 218 223 225 229 233 235 242 243 247 245 248 252 254 256 258 257 263 263 261 263 259 263 261 262 268 271 269 277 270 268 271 275
183 189 184 191 197 198 205 208 208 211 214 218 222 227 230 237 239 240 242 245 247 248 249 250 254 255 260 262 265 266 259 260 263 265 263 270 272 272 268 272 271 271 275
189 187 187 192 201 204 209 212 214 216 217 220 221 225 230 235 237 239 241 243 246 248 246 250 251 253 256 257 261 255 263 260 262 263 266 268 269 264 266 269 269 270 273
198 196 193 197 203 211 217 219 219 220 219 224 227 227 230 232 234 235 238 240 243 244 245 248 250 250 253 254 255 252 261 260 257 262 263 263 265 264 266 269 271 269 269
211 204 196 202 208 214 218 219 221 223 225 224 226 229 232 234 235 237 239 242 243 243 244 246 248 246 250 252 253 252 256 255 256 261 262 261 265 264 263 265 267 271 272
235 212 203 212 219 221 226 226 227 229 229 229 229 233 236 239 239 240 242 241 241 243 245 248 250 246 248 250 250 252 255 256 256 258 262 263 263 262 264 265 266 269 273
232 219 216 219 224 231 233 235 236 234 233 233 236 236 239 240 241 241 242 242 245 246 248 248 249 246 248 248 252 254 256 252 254 255 258 259 261 260 262 265 268 267 274
241 242 231 225 226 233 240 240 243 245 242 241 241 241 244 243 243 242 243 243 245 247 248 249 249 249 248 251 255 256 254 254 255 254 260 257 258 260 261 263 266 269 270
357 337 317 259 248 242 249 250 252 249 250 250 249 248 245 245 246 245 246 249 249 250 250 250 250 250 252 253 252 255 254 252 254 260 257 258 259 264 266 264 265 268 271
338 339 337 279 309 307 289 271 263 259 260 259 259 256 254 251 251 249 249 249 248 249 251 252 252 252 251 251 253 255 254 255 257 257 259 259 259 262 263 264 268 270 272
332 330 328 327 323 321 316 307 293 264 258 258 258 257 257 256 256 255 255 252 251 251 251 252 252 253 252 254 254 255 257 256 257 256 258 259 261 264 264 267 269 270 272
328 327 327 324 322 323 321 316 306 290 272 259 255 253 252 253 256 257 259 256 256 258 258 259 257 253 255 256 256 257 257 258 259 258 261 262 264 264 265 267 269 271 274
327 327 325 324 322 322 321 313 302 292 283 275 271 266 261 261 261 262 262 261 260 259 262 262 262 257 256 258 260 259 261 259 262 263 264 264 264 266 268 270 271 274 275
327 328 325 326 324 324 321 314 308 302 294 287 283 279 274 270 265 262 260 259 258 258 258 261 263 260 258 259 261 263 263 263 265 268 269 268 265 265 268 272 275 275 275
327 329 325 327 327 326 322 316 313 308 301 295 290 284 279 273 269 266 263 261 260 258 258 257 256 256 258 259 262 262 262 262 262 265 265 266 267 268 268 270 272 273 276
Height
10596 10601 10611 10612 10618 10632 10641 10651 10661 10667 10676 10692 10700 10709 10716 10724 10734 10740 10744 10749 10752 10758 10764 10767 10772 10776 10778 10780 10782 10783 10784 10783 10782 10785 10783 10785 10784 10787 10786 10786 10786 10785 10784
10572 10577 10590 10594 10606 10616 10625 10634 10649 10658 10668 10679 10689 10697 10706 10714 10720 10728 10734 10738 10740 10747 10752 10755 10759 10763 10765 10766 10769 10772 10773 10771 10770 10772 10771 10771 10773 10774 10773 10774 10772 10773 10772
10553 10561 10573 10578 10590 10600 10612 10621 10634 10642 10654 10666 10679 10688 10695 10702 10709 10715 10723 10726 10731 10735 10741 10744 10747 10751 10750 10753 10757 10759 10760 10759 10759 10760 10757 10758 10760 10760 10759 10760 10756 10758 10757
10532 10547 10557 10561 10576 10586 10597 10607 10621 10634 10643 10657 10667 10680 10687 10692 10697 10702 10707 10716 10719 10722 10727 10732 10735 10737 10740 10742 10745 10744 10747 10747 10748 10746 10743 10743 10745 10745 10743 10741 10741 10742 10740
10519 10534 10540 10551 10565 10574 10585 10596 10608 10618 10635 10649 10661 10669 10677 10677 10686 10690 10697 10703 10705 10710 10716 10720 10722 10724 10727 10729 10728 10730 10733 10733 10735 10733 10731 10726 10726 10727 10726 10726 10725 10726 10723
10503 10514 10525 10536 10551 10562 10574 10588 10600 10614 10630 10639 10647 10655 10661 10668 10674 10676 10682 10685 10689 10694 10700 10705 10707 10706 10710 10711 10714 10715 10717 10719 10719 10719 10718 10715 10713 10709 10705 10707 10708 10705 10703
10490 10501 10514 10530 10544 10554 10565 10577 10591 10607 10621 10628 10638 10645 10651 10655 10657 10660 10663 10668 10672 10678 10682 10685 10686 10688 10695 10699 10702 10702 10701 10703 10705 10705 10704 10701 10698 10697 10695 10693 10691 10686 10686
10482 10495 10509 10521 10529 10545 10555 10569 10579 10595 10608 10618 10626 10629 10633 10635 10639 10644 10647 10649 10655 10658 10661 10665 10669 10673 10679 10684 10685 10687 10687 10686 10686 10687 10690 10688 10687 10683 10682 10680 10677 10675 10674
10479 10490 10502 10512 10528 10537 10549 10561 10572 10583 10594 10605 10610 10614 10617 10620 10624 10627 10630 10633 10639 10644 10650 10651 10658 10655 10660 10666 10670 10672 10670 10668 10667 10668 10670 10669 10668 10667 10664 10664 10662 10659 10657
10474 10482 10493 10505 10518 10533 10546 10553 10561 10573 10579 10592 10593 10599 10606 10608 10608 10610 10614 10619 10622 10628 10634 10633 10636 10635 10637 10648 10652 10653 10655 10652 10650 10652 10652 10652 10652 10650 10649 10646 10645 10642 10641
10473 10481 10493 10504 10517 10529 10540 10544 10551 10561 10568 10579 10581 10586 10589 10591 10592 10595 10598 10601 10605 10607 10613 10613 10613 10615 10619 10624 10633 10638 10639 10638 10635 10635 10636 10635 10633 10634 10632 10631 10629 10628 10626
10474 10481 10491 10505 10517 10524 10528 10535 10542 10549 10554 10562 10567 10568 10573 10577 10579 10580 10583 10585 10589 10592 10592 10594 10594 10596 10600 10603 10610 10616 10619 10618 10617 10617 10615 10615 10616 10615 10616 10613 10612 10611 10610
10473 10478 10492 10501 10508 10516 10520 10524 10528 10532 10538 10546 10551 10556 10559 10561 10563 10566 10565 10564 10566 10572 10574 10575 10574 10577 10580 10581 10586 10589 10592 10594 10597 10599 10599 10600 10598 10596 10594 10593 10594 10592 10591
10472 10480 10489 10494 10501 10504 10508 10513 10518 10524 10526 10530 10533 10536 10540 10544 10547 10549 10547 10548 10549 10553 10557 10558 10559 10558 10561 10563 10565 10567 10568 10573 10572 10573 10574 10575 10574 10573 10572 10572 10572 10571 10571
10478 10482 10485 10490 10494 10496 10499 10505 10505 10511 10514 10519 10521 10525 10526 10527 10527 10525 10527 10529 10530 10533 10535 10538 10539 10539 10541 10542 10546 10548 10548 10550 10553 10552 10554 10556 10555 10553 10552 10553 10553 10553 10552
10482 10482 10488 10485 10489 10492 10494 10494 10496 10502 10504 10504 10504 10504 10506 10508 10505 10503 10505 10506 10508 10508 10509 10511 10513 10518 10521 10520 10524 10526 10527 10527 10530 10529 10531 10534 10535 10533 10529 10531 10532 10533 10533
10485 10490 10491 10492 10490 10488 10489 10490 10491 10489 10495 10492 10490 10491 10488 10487 10484 10480 10480 10478 10480 10482 10483 10484 10487 10491 10495 10498 10499 10504 10506 10509 10510 10511 10509 10510 10511 10510 10510 10511 10512 10514 10510
10484 10488 10489 10484 10483 10483 10482 10481 10478 10476 10476 10475 10471 10467 10465 10462 10459 10455 10454 10454 10455 10455 10457 10457 10462 10465 10466 10467 10472 10476 10482 10485 10482 10485 10484 10486 10486 10488 10489 10490 10494 10495 10491
10485 10488 10488 10483 10478 10475 10473 10469 10464 10463 10457 10453 10449 10446 10447 10441 10433 10429 10426 10424 10428 10430 10429 10430 10433 10436 10437 10438 10441 10448 10453 10455 10456 10459 10459 10460 10460 10463 10465 10461 10466 10470 10467
10483 10485 10486 10485 10481 10476 10467 10460 10453 10444 10434 10428 10428 10421 10413 10407 10402 10399 10399 10396 10398 10398 10394 10396 10402 10406 10405 10405 10411 10418 10421 10425 10428 10429 10433 10435 10435 10440 10444 10439 10439 10441 10443
10472 10470 10468 10469 10463 10463 10455 10445 10432 10424 10416 10407 10397 10388 10379 10374 10369 10367 10365 10358 10354 10358 10360 10363 10364 10370 10372 10372 10378 10383 10389 10392 10397 10401 10405 10406 10409 10410 10414 10415 10417 10418 10415
10458 10452 10446 10442 10435 10429 10421 10411 10400 10391 10377 10368 10357 10348 10341 10336 10330 10327 10316 10314 10312 10314 10322 10322 10327 10329 10327 10337 10346 10350 10353 10355 10362 10366 10370 10375 10381 10385 10387 10390 10390 10393 10396
10443 10438 10431 10422 10410 10399 10388 10374 10360 10354 10347 10336 10318 10302 10290 10279 10273 10271 10270 10268 10270 10273 10276 10283 10282 10291 10292 10300 10305 10312 10317 10323 10330 10333 10339 10339 10345 10356 10359 10359 10362 10366 10373
10424 10415 10404 10394 10382 10370 10357 10343 10330 10318 10304 10289 10275 10264 10257 10247 10237 10230 10229 10229 10232 10233 10234 10238 10237 10246 10252 10260 10264 10267 10275 10283 10293 10297 10299 10309 10312 10321 10326 10333 10329 10333 10338
10407 10395 10381 10368 10353 10338 10320 10300 10286 10273 10257 10242 10228 10217 10209 10202 10197 10193 10191 10191 10193 10197 10200 10200 10201 10209 10214 10218 10223 10228 10236 10245 10253 10258 10262 10267 10275 10284 10292 10295 10299 10297 10302
10386 10371 10355 10341 10324 10305 10285 10263 10245 10226 10211 10200 10190 10181 10175 10169 10164 10159 10156 10156 10154 10156 10159 10162 10169 10174 10179 10182 10186 10193 10202 10208 10217 10225 10232 10238 10242 10250 10257 10264 10268 10273 10275